MST,Max TemperatureF,Mean TemperatureF,Min TemperatureF,Max Dew PointF,MeanDew PointF,Min DewpointF,Max Humidity, Mean Humidity, Min Humidity, Max Sea Level PressureIn, Mean Sea Level PressureIn, Min Sea Level PressureIn, Max VisibilityMiles, Mean VisibilityMiles, Min VisibilityMiles, Max Wind SpeedMPH, Mean Wind SpeedMPH, Max Gust SpeedMPH,PrecipitationIn, CloudCover, Events, WindDirDegrees
2012-11-1,59,49,39,28,22,14,46,32,17,29.98,29.93,29.85,10,10,10,25,13,31,0.00,3,,231
2012-11-2,52,43,34,28,25,21,75,53,30,30.16,30.07,29.96,10,10,10,16,7,23,0.00,1,,271
2012-11-3,53,42,30,27,23,20,78,54,30,30.30,30.20,30.11,10,10,10,17,7,22,0.00,0,,225
2012-11-4,57,44,31,28,25,22,64,50,35,30.43,30.33,30.25,10,10,10,16,9,21,0.00,1,,251
2012-11-5,57,45,32,33,30,27,75,57,38,30.43,30.36,30.29,10,10,10,14,9,22,0.00,0,,225
2012-11-6,61,47,32,32,29,26,82,55,27,30.39,30.27,30.14,10,10,10,12,9,16,0.00,0,,227
2012-11-7,62,49,35,28,22,17,64,42,19,30.12,29.99,29.81,10,10,10,24,11,30,0.00,0,,219
2012-11-8,59,50,40,24,19,15,45,32,18,29.80,29.62,29.46,10,10,10,37,17,46,0.00,0,,198
2012-11-9,48,37,26,37,26,19,100,69,37,29.66,29.57,29.42,10,3,0,23,14,39,0.12,8,Fog-Rain-Snow,284
2012-11-10,23,21,19,21,16,7,100,86,71,30.01,29.71,29.58,10,5,0,14,8,,0.13,7,Fog-Snow,261
2012-11-11,19,12,6,12,8,3,92,80,67,30.51,30.16,29.89,10,8,2,20,12,29,T,6,Snow,244
2012-11-12,26,16,6,18,11,3,88,75,62,30.61,30.49,30.30,10,10,10,10,5,14,0.19,5,,216
2012-11-13,34,28,22,23,19,15,75,70,64,30.43,30.37,30.30,10,10,10,9,6,12,0.00,3,,213
2012-11-14,43,34,24,27,23,19,81,68,55,30.28,30.25,30.17,10,10,10,17,10,,0.00,2,,240
2012-11-15,43,33,22,30,24,18,100,77,53,30.37,30.30,30.22,10,5,0,10,3,12,0.00,3,Fog,64
2012-11-16,45,36,27,30,24,16,92,66,40,30.18,30.12,30.04,10,10,9,22,9,26,T,5,,174
2012-11-17,45,39,33,36,33,30,92,79,65,30.12,30.04,29.96,10,10,6,17,6,24,0.00,7,Rain,197
2012-11-18,43,38,32,37,33,30,96,83,70,30.16,30.06,29.93,10,7,0,21,13,27,0.02,6,Fog-Rain-Snow,221
2012-11-19,46,37,28,35,30,27,100,77,53,30.28,30.21,30.13,10,7,0,17,8,,0.00,3,Fog,209
2012-11-20,52,42,31,28,27,25,75,55,35,30.25,30.15,30.03,10,10,10,17,8,20,0.02,0,,204
2012-11-21,54,44,33,31,24,19,70,49,28,30.11,29.96,29.86,10,10,10,25,12,33,T,3,,235
2012-11-22,40,33,26,31,17,7,89,57,25,30.52,30.32,30.05,10,10,10,16,10,,T,1,,278
2012-11-23,51,37,22,19,16,10,68,46,23,30.57,30.45,30.28,10,10,10,10,4,,0.00,0,,222
2012-11-24,52,41,29,19,16,14,58,40,22,30.25,30.15,29.97,10,10,10,24,12,29,0.00,0,,224
2012-11-25,44,37,29,25,20,15,54,44,33,30.09,29.99,29.90,10,10,10,24,14,36,0.00,2,,244
2012-11-26,43,33,23,24,20,14,88,59,30,30.29,30.22,30.13,10,10,10,12,5,18,0.00,3,,244
2012-11-27,50,36,21,17,12,10,75,47,19,30.31,30.25,30.18,10,10,10,21,11,25,0.00,0,,223
2012-11-28,52,43,33,20,14,9,48,36,24,30.21,30.09,29.94,10,10,10,25,9,31,0.00,0,,201
2012-11-29,49,40,30,27,23,20,69,52,34,30.09,30.02,29.94,10,10,10,17,12,25,0.00,1,,222
2012-11-30,48,40,31,36,29,25,92,69,45,29.98,29.92,29.83,10,10,10,29,13,36,T,3,Rain,209